Regional Weather Roundup
Issued by NWS

Home | Current Version | Previous Version | Graphics & Text | Print | Product List | Glossary On
Versions: 1 2 3 4 5 6 7 8 9 10 11 12 13 14 15 16 17 18 19 20 21 22 23 24 25 26 27 28 29 30 31 32 33 34 35 36 37 38 39 40 41 42 43 44 45 46 47 48 49 50
087
ASUS43 KLMK 080702
RWRKY
KENTUCKY REGIONAL WEATHER ROUNDUP
NATIONAL WEATHER SERVICE LOUISVILLE KY
200 AM EST MON FEB 08 2016

NOTE "FAIR" INDICATES FEW OR NO CLOUDS BELOW 12,000 FEET
WITH NO SIGNIFICANT WEATHER AND/OR OBSTRUCTIONS TO VISIBILITY.

KYZ001>023-026-027-061>063-070>075-080800-
WESTERN AND SOUTH CENTRAL KENTUCKY

CITY           SKY/WX    TMP DP  RH WIND       PRES   REMARKS
PADUCAH        PTCLDY    41  28  60 W8        29.84F
HENDERSON      CLOUDY    39  34  81 NW5       29.81F
OWENSBORO      LGT RAIN  40  38  93 W5        29.83F
HOPKINSVILLE   MOCLDY    45  31  57 W5        29.84F
BOWLING GREEN  LGT RAIN  47  30  51 W6        29.81F
GLASGOW        NOT AVBL
$$

KYZ024-025-028>034-038-045-046-053-080800-
NORTH CENTRAL KENTUCKY

CITY           SKY/WX    TMP DP  RH WIND       PRES   REMARKS
LOUISVILLE/SDF LGT RAIN  46  29  51 NW15G22   29.76F
LOUISVILLE/LOU CLOUDY    45  31  58 W9        29.77F
FORT KNOX      CLOUDY    41  34  75 W7        29.76F
$$

KYZ035>037-039>044-047>052-055>060-089>105-080800-
NORTHEAST KENTUCKY

CITY           SKY/WX    TMP DP  RH WIND       PRES   REMARKS
LEXINGTON      CLOUDY    43  24  47 SW9       29.75F
COVINGTON      CLOUDY    43  30  60 W9        29.73F
FRANKFORT      CLOUDY    44  25  47 SW7       29.73F
$$

KYZ054-064>069-076>088-106>120-080800-
SOUTHEAST KENTUCKY

CITY           SKY/WX    TMP DP  RH WIND       PRES   REMARKS
JACKSON        MOCLDY    40  20  44 S5        29.78F
LONDON         CLOUDY    42  20  41 S7        29.79F
SOMERSET       NOT AVBL
MIDDLESBORO    NOT AVBL
MONTICELLO     CLOUDY    45  23  42 SW15      29.81F
$$





USA.gov is the U.S. government's official web portal to all federal, state and local government web resources and services.